Time,TemperatureF,DewpointF,PressureIn,WindDirection,WindDirectionDegrees,WindSpeedMPH,WindSpeedGustMPH,Humidity,HourlyPrecipIn,Conditions,Clouds,dailyrainin,SoftwareType,DateUTC
2013-03-28 00:01:00,56.1,33.8,29.99,SW,225,0.0,7.4,43,0.00,,,0.00,WUHU21623XXSP,2013-03-28 07:01:00,
2013-03-28 00:06:00,56.3,33.4,29.98,SW,225,0.0,0.0,42,0.00,,,0.00,WUHU21623XXSP,2013-03-28 07:06:00,
2013-03-28 00:11:00,55.9,33.1,29.99,SW,225,0.0,0.0,42,0.00,,,0.00,WUHU21623XXSP,2013-03-28 07:11:00,
2013-03-28 00:17:00,55.9,33.1,29.98,SW,225,0.0,0.0,42,0.00,,,0.00,WUHU21623XXSP,2013-03-28 07:17:00,
2013-03-28 00:22:00,55.4,32.6,29.99,SW,225,0.0,0.0,42,0.00,,,0.00,WUHU21623XXSP,2013-03-28 07:22:00,
2013-03-28 00:27:00,55.4,32.6,29.99,SW,225,0.0,0.0,42,0.00,,,0.00,WUHU21623XXSP,2013-03-28 07:27:00,
2013-03-28 00:32:00,55.2,32.4,29.98,SW,225,0.0,0.0,42,0.00,,,0.00,WUHU21623XXSP,2013-03-28 07:32:00,
2013-03-28 00:37:00,55.0,32.3,29.99,SW,225,0.0,0.0,42,0.00,,,0.00,WUHU21623XXSP,2013-03-28 07:37:00,
2013-03-28 00:42:00,55.0,32.3,29.98,SW,225,0.0,0.0,42,0.00,,,0.00,WUHU21623XXSP,2013-03-28 07:42:00,
2013-03-28 00:47:00,54.9,32.6,29.99,SW,225,0.0,0.0,42,0.00,,,0.00,WUHU21623XXSP,2013-03-28 07:47:00,
2013-03-28 00:52:00,54.9,32.1,29.99,SW,225,0.0,0.0,42,0.00,,,0.00,WUHU21623XXSP,2013-03-28 07:52:00,
2013-03-28 00:57:00,54.1,31.4,29.99,SW,225,0.0,0.0,42,0.00,,,0.00,WUHU21623XXSP,2013-03-28 07:57:00,
2013-03-28 01:02:00,53.8,31.7,29.99,SW,225,0.0,0.0,43,0.00,,,0.00,WUHU21623XXSP,2013-03-28 08:02:00,
2013-03-28 01:07:00,53.8,32.2,29.99,SW,225,0.0,0.0,44,0.00,,,0.00,WUHU21623XXSP,2013-03-28 08:07:00,
2013-03-28 01:12:00,54.1,32.6,29.98,SW,225,0.0,0.0,44,0.00,,,0.00,WUHU21623XXSP,2013-03-28 08:12:00,
2013-03-28 01:17:00,54.1,32.6,29.99,SW,225,0.0,0.0,44,0.00,,,0.00,WUHU21623XXSP,2013-03-28 08:17:00,
2013-03-28 01:22:00,54.1,32.0,29.99,SW,225,0.0,0.0,43,0.00,,,0.00,WUHU21623XXSP,2013-03-28 08:22:00,
2013-03-28 01:27:00,54.3,32.2,29.99,SW,225,0.0,0.0,43,0.00,,,0.00,WUHU21623XXSP,2013-03-28 08:27:00,
2013-03-28 01:32:00,54.1,32.0,29.99,SW,225,0.0,0.0,43,0.00,,,0.00,WUHU21623XXSP,2013-03-28 08:32:00,
2013-03-28 01:37:00,53.2,31.7,29.99,SW,225,0.0,0.0,44,0.00,,,0.00,WUHU21623XXSP,2013-03-28 08:37:00,
2013-03-28 01:42:00,53.4,31.9,29.99,SW,225,0.0,0.0,44,0.00,,,0.00,WUHU21623XXSP,2013-03-28 08:42:00,
2013-03-28 01:47:00,54.0,32.4,29.99,SW,225,0.0,0.0,44,0.00,,,0.00,WUHU21623XXSP,2013-03-28 08:47:00,
2013-03-28 01:52:00,53.8,31.7,29.99,SW,225,0.0,0.0,43,0.00,,,0.00,WUHU21623XXSP,2013-03-28 08:52:00,
2013-03-28 01:57:00,53.8,31.7,29.99,SW,225,0.0,0.0,43,0.00,,,0.00,WUHU21623XXSP,2013-03-28 08:57:00,
2013-03-28 02:02:00,53.8,31.7,29.99,SW,225,0.0,0.0,43,0.00,,,0.00,WUHU21623XXSP,2013-03-28 09:02:00,
2013-03-28 02:07:00,53.4,31.4,29.99,SW,225,0.0,0.0,43,0.00,,,0.00,WUHU21623XXSP,2013-03-28 09:07:00,
2013-03-28 02:12:00,53.2,31.2,29.99,SW,225,0.0,2.0,43,0.00,,,0.00,WUHU21623XXSP,2013-03-28 09:12:00,
2013-03-28 02:17:00,53.2,31.2,29.99,SW,225,0.0,2.0,43,0.00,,,0.00,WUHU21623XXSP,2013-03-28 09:17:00,
2013-03-28 02:22:00,53.4,31.4,29.99,SW,225,0.0,1.8,43,0.00,,,0.00,WUHU21623XXSP,2013-03-28 09:22:00,
2013-03-28 02:27:00,53.2,31.2,29.99,SW,225,0.0,0.0,43,0.00,,,0.00,WUHU21623XXSP,2013-03-28 09:27:00,
2013-03-28 02:32:00,53.2,31.2,29.99,SW,225,0.0,0.0,43,0.00,,,0.00,WUHU21623XXSP,2013-03-28 09:32:00,
2013-03-28 02:38:00,53.2,30.6,29.98,SW,225,0.0,0.0,42,0.00,,,0.00,WUHU21623XXSP,2013-03-28 09:38:00,
2013-03-28 02:43:00,52.9,30.9,29.98,SW,225,0.0,0.0,43,0.00,,,0.00,WUHU21623XXSP,2013-03-28 09:43:00,
2013-03-28 02:48:00,53.2,31.2,29.98,SW,225,0.0,0.0,43,0.00,,,0.00,WUHU21623XXSP,2013-03-28 09:48:00,
2013-03-28 02:53:00,53.2,31.2,29.98,SW,225,0.0,0.0,43,0.00,,,0.00,WUHU21623XXSP,2013-03-28 09:53:00,
2013-03-28 02:58:00,52.7,30.7,29.98,SW,225,0.0,0.0,43,0.00,,,0.00,WUHU21623XXSP,2013-03-28 09:58:00,
2013-03-28 03:03:00,52.3,30.4,29.98,SW,225,0.0,0.0,43,0.00,,,0.00,WUHU21623XXSP,2013-03-28 10:03:00,
2013-03-28 03:08:00,52.3,29.8,29.98,SW,225,0.0,0.0,42,0.00,,,0.00,WUHU21623XXSP,2013-03-28 10:08:00,
2013-03-28 03:13:00,52.5,30.0,29.98,SW,225,0.0,0.0,42,0.00,,,0.00,WUHU21623XXSP,2013-03-28 10:13:00,
2013-03-28 03:18:00,52.2,29.7,29.98,SW,225,0.0,0.0,42,0.00,,,0.00,WUHU21623XXSP,2013-03-28 10:18:00,
2013-03-28 03:23:00,52.0,30.1,29.98,SW,225,0.0,0.0,43,0.00,,,0.00,WUHU21623XXSP,2013-03-28 10:23:00,
2013-03-28 03:28:00,52.2,30.2,29.98,SW,225,0.0,0.0,43,0.00,,,0.00,WUHU21623XXSP,2013-03-28 10:28:00,
2013-03-28 03:33:00,52.3,29.8,29.98,SW,225,0.0,0.0,42,0.00,,,0.00,WUHU21623XXSP,2013-03-28 10:33:00,
2013-03-28 03:38:00,52.0,28.9,29.98,SW,225,0.0,0.0,41,0.00,,,0.00,WUHU21623XXSP,2013-03-28 10:38:00,
2013-03-28 03:43:00,51.6,28.6,29.97,SW,225,0.0,0.0,41,0.00,,,0.00,WUHU21623XXSP,2013-03-28 10:43:00,
2013-03-28 03:48:00,51.8,28.8,29.98,SW,225,0.0,0.0,41,0.00,,,0.00,WUHU21623XXSP,2013-03-28 10:48:00,
2013-03-28 03:53:00,51.6,28.6,29.98,SW,225,0.0,0.0,41,0.00,,,0.00,WUHU21623XXSP,2013-03-28 10:53:00,
2013-03-28 03:58:00,50.9,28.0,29.98,SW,225,0.0,0.0,41,0.00,,,0.00,WUHU21623XXSP,2013-03-28 10:58:00,
2013-03-28 04:03:00,50.2,27.9,29.97,SW,225,0.0,0.0,42,0.00,,,0.00,WUHU21623XXSP,2013-03-28 11:03:00,
2013-03-28 04:08:00,50.7,28.4,29.97,SW,225,0.0,0.0,42,0.00,,,0.00,WUHU21623XXSP,2013-03-28 11:08:00,
2013-03-28 04:13:00,50.9,28.5,29.97,SW,225,0.0,0.0,42,0.00,,,0.00,WUHU21623XXSP,2013-03-28 11:13:00,
2013-03-28 04:18:00,50.7,28.4,29.97,SW,225,0.0,0.0,42,0.00,,,0.00,WUHU21623XXSP,2013-03-28 11:18:00,
2013-03-28 04:23:00,50.7,28.4,29.98,SW,225,0.0,0.0,42,0.00,,,0.00,WUHU21623XXSP,2013-03-28 11:23:00,
2013-03-28 04:28:00,51.1,28.1,29.98,SW,225,0.0,0.0,41,0.00,,,0.00,WUHU21623XXSP,2013-03-28 11:28:00,
2013-03-28 04:33:00,50.7,27.8,29.98,SW,225,0.0,0.0,41,0.00,,,0.00,WUHU21623XXSP,2013-03-28 11:33:00,
2013-03-28 04:38:00,50.4,27.5,29.98,SW,225,0.0,0.0,41,0.00,,,0.00,WUHU21623XXSP,2013-03-28 11:38:00,
2013-03-28 04:43:00,50.4,28.0,29.98,SW,225,0.0,0.0,42,0.00,,,0.00,WUHU21623XXSP,2013-03-28 11:43:00,
2013-03-28 04:48:00,50.5,28.2,29.98,SW,225,0.0,0.0,42,0.00,,,0.00,WUHU21623XXSP,2013-03-28 11:48:00,
2013-03-28 04:53:00,50.5,28.2,29.98,SW,225,0.0,0.0,42,0.00,,,0.00,WUHU21623XXSP,2013-03-28 11:53:00,
2013-03-28 04:58:00,50.4,28.0,29.98,SW,225,0.0,0.0,42,0.00,,,0.00,WUHU21623XXSP,2013-03-28 11:58:00,
2013-03-28 05:03:00,50.5,28.2,29.98,SW,225,0.0,0.0,42,0.00,,,0.00,WUHU21623XXSP,2013-03-28 12:03:00,
2013-03-28 05:08:00,50.4,28.0,29.98,SW,225,0.0,0.0,42,0.00,,,0.00,WUHU21623XXSP,2013-03-28 12:08:00,
2013-03-28 05:13:00,50.5,28.2,29.98,SW,225,0.0,0.0,42,0.00,,,0.00,WUHU21623XXSP,2013-03-28 12:13:00,
2013-03-28 05:18:00,50.7,28.4,29.98,SW,225,0.0,0.0,42,0.00,,,0.00,WUHU21623XXSP,2013-03-28 12:18:00,
2013-03-28 05:23:00,50.7,28.4,29.98,SW,225,0.0,0.0,42,0.00,,,0.00,WUHU21623XXSP,2013-03-28 12:23:00,
2013-03-28 05:28:00,50.5,28.2,29.98,SW,225,0.0,0.0,42,0.00,,,0.00,WUHU21623XXSP,2013-03-28 12:28:00,
2013-03-28 05:33:00,50.5,28.2,29.98,SW,225,0.0,0.0,42,0.00,,,0.00,WUHU21623XXSP,2013-03-28 12:33:00,
2013-03-28 05:39:00,50.2,28.4,29.98,SW,225,0.0,0.0,43,0.00,,,0.00,WUHU21623XXSP,2013-03-28 12:39:00,
2013-03-28 05:44:00,50.4,28.6,29.98,SW,225,0.0,0.0,43,0.00,,,0.00,WUHU21623XXSP,2013-03-28 12:44:00,
2013-03-28 05:49:00,50.5,28.8,29.98,SW,225,0.0,0.0,43,0.00,,,0.00,WUHU21623XXSP,2013-03-28 12:49:00,
2013-03-28 05:54:00,50.7,28.9,29.98,SW,225,0.0,0.0,43,0.00,,,0.00,WUHU21623XXSP,2013-03-28 12:54:00,
2013-03-28 05:59:00,50.4,28.6,29.98,SW,225,0.0,0.0,43,0.00,,,0.00,WUHU21623XXSP,2013-03-28 12:59:00,
2013-03-28 06:04:00,50.2,28.4,29.99,SW,225,0.0,0.0,43,0.00,,,0.00,WUHU21623XXSP,2013-03-28 13:04:00,
2013-03-28 06:09:00,50.0,28.3,29.99,SW,225,0.0,0.0,43,0.00,,,0.00,WUHU21623XXSP,2013-03-28 13:09:00,
2013-03-28 06:14:00,49.8,28.1,29.99,SW,225,0.0,0.0,43,0.00,,,0.00,WUHU21623XXSP,2013-03-28 13:14:00,
2013-03-28 06:19:00,49.8,28.1,29.99,SW,225,0.0,0.0,43,0.00,,,0.00,WUHU21623XXSP,2013-03-28 13:19:00,
2013-03-28 06:24:00,49.3,28.1,29.99,SW,225,0.0,0.0,44,0.00,,,0.00,WUHU21623XXSP,2013-03-28 13:24:00,
2013-03-28 06:29:00,49.3,28.1,29.99,SW,225,0.0,0.0,44,0.00,,,0.00,WUHU21623XXSP,2013-03-28 13:29:00,
2013-03-28 06:34:00,48.9,27.8,29.99,SW,225,0.0,0.0,44,0.00,,,0.00,WUHU21623XXSP,2013-03-28 13:34:00,
2013-03-28 06:39:00,48.9,27.8,29.99,SW,225,0.0,0.0,44,0.00,,,0.00,WUHU21623XXSP,2013-03-28 13:39:00,
2013-03-28 06:44:00,49.1,28.0,30.00,SW,225,0.0,0.0,44,0.00,,,0.00,WUHU21623XXSP,2013-03-28 13:44:00,
2013-03-28 06:49:00,49.3,28.1,30.00,SW,225,0.0,0.0,44,0.00,,,0.00,WUHU21623XXSP,2013-03-28 13:49:00,
2013-03-28 06:54:00,49.6,28.5,30.00,SW,225,0.0,1.3,44,0.00,,,0.00,WUHU21623XXSP,2013-03-28 13:54:00,
2013-03-28 06:59:00,49.8,28.7,30.00,SW,225,0.0,1.3,44,0.00,,,0.00,WUHU21623XXSP,2013-03-28 13:59:00,
2013-03-28 07:04:00,50.4,29.2,30.00,SW,225,0.0,0.0,44,0.00,,,0.00,WUHU21623XXSP,2013-03-28 14:04:00,
2013-03-28 07:09:00,50.5,29.3,30.01,SW,225,0.0,6.5,44,0.00,,,0.00,WUHU21623XXSP,2013-03-28 14:09:00,
2013-03-28 07:14:00,50.4,29.2,30.01,SW,225,0.0,6.5,44,0.00,,,0.00,WUHU21623XXSP,2013-03-28 14:14:00,
2013-03-28 07:19:00,50.5,29.3,30.01,SW,225,0.0,0.0,44,0.00,,,0.00,WUHU21623XXSP,2013-03-28 14:19:00,
2013-03-28 07:24:00,50.7,29.5,30.01,SW,225,0.0,0.0,44,0.00,,,0.00,WUHU21623XXSP,2013-03-28 14:24:00,
2013-03-28 07:29:00,51.6,29.7,30.01,SW,225,0.0,0.0,43,0.00,,,0.00,WUHU21623XXSP,2013-03-28 14:29:00,
2013-03-28 07:34:00,52.3,29.8,30.02,SW,225,0.0,0.0,42,0.00,,,0.00,WUHU21623XXSP,2013-03-28 14:34:00,
2013-03-28 07:39:00,52.9,30.3,30.02,SW,225,0.0,0.0,42,0.00,,,0.00,WUHU21623XXSP,2013-03-28 14:39:00,
2013-03-28 07:44:00,53.4,30.2,30.02,SW,225,0.0,0.0,41,0.00,,,0.00,WUHU21623XXSP,2013-03-28 14:44:00,
2013-03-28 07:49:00,54.0,30.7,30.02,SW,225,0.0,0.0,41,0.00,,,0.00,WUHU21623XXSP,2013-03-28 14:49:00,
2013-03-28 07:54:00,54.3,30.5,30.02,SW,225,0.0,0.0,40,0.00,,,0.00,WUHU21623XXSP,2013-03-28 14:54:00,
2013-03-28 07:59:00,54.9,31.0,30.02,SW,225,0.0,0.0,40,0.00,,,0.00,WUHU21623XXSP,2013-03-28 14:59:00,
2013-03-28 08:04:00,55.4,30.8,30.02,SW,225,0.0,0.0,39,0.00,,,0.00,WUHU21623XXSP,2013-03-28 15:04:00,
2013-03-28 08:09:00,55.6,30.9,30.02,SW,225,0.0,0.0,39,0.00,,,0.00,WUHU21623XXSP,2013-03-28 15:09:00,
2013-03-28 08:14:00,56.1,31.4,30.03,SW,225,0.0,0.0,39,0.00,,,0.00,WUHU21623XXSP,2013-03-28 15:14:00,
2013-03-28 08:19:00,57.0,31.5,30.03,SW,225,0.0,0.0,38,0.00,,,0.00,WUHU21623XXSP,2013-03-28 15:19:00,
2013-03-28 08:24:00,57.6,32.0,30.03,SW,225,0.0,0.0,38,0.00,,,0.00,WUHU21623XXSP,2013-03-28 15:24:00,
2013-03-28 08:29:00,58.3,31.9,30.03,SW,225,0.0,0.0,37,0.00,,,0.00,WUHU21623XXSP,2013-03-28 15:29:00,
2013-03-28 08:34:00,58.8,31.7,30.03,SW,225,0.0,0.0,36,0.00,,,0.00,WUHU21623XXSP,2013-03-28 15:34:00,
2013-03-28 08:39:00,60.1,32.7,30.03,SW,225,0.0,0.0,36,0.00,,,0.00,WUHU21623XXSP,2013-03-28 15:39:00,
2013-03-28 08:44:00,60.6,32.6,30.04,SW,225,0.0,0.0,35,0.00,,,0.00,WUHU21623XXSP,2013-03-28 15:44:00,
2013-03-28 08:49:00,60.6,31.8,30.04,SW,225,1.8,6.3,34,0.00,,,0.00,WUHU21623XXSP,2013-03-28 15:49:00,
2013-03-28 08:54:00,61.2,33.0,30.04,SW,225,0.0,6.3,35,0.00,,,0.00,WUHU21623XXSP,2013-03-28 15:54:00,
2013-03-28 08:59:00,62.4,33.5,30.04,SW,225,0.0,2.5,34,0.00,,,0.00,WUHU21623XXSP,2013-03-28 15:59:00,
2013-03-28 09:04:00,63.0,33.9,30.05,SW,225,0.0,0.0,34,0.00,,,0.00,WUHU21623XXSP,2013-03-28 16:04:00,
2013-03-28 09:09:00,63.3,33.5,30.04,SW,225,0.0,0.0,33,0.00,,,0.00,WUHU21623XXSP,2013-03-28 16:09:00,
2013-03-28 09:14:00,63.7,33.9,30.05,SW,225,0.0,0.0,33,0.00,,,0.00,WUHU21623XXSP,2013-03-28 16:14:00,
2013-03-28 09:19:00,64.6,34.0,30.05,SW,225,0.0,0.0,32,0.00,,,0.00,WUHU21623XXSP,2013-03-28 16:19:00,
2013-03-28 09:24:00,65.7,34.2,30.05,SW,225,0.0,0.0,31,0.00,,,0.00,WUHU21623XXSP,2013-03-28 16:24:00,
2013-03-28 09:29:00,66.2,34.7,30.05,SW,225,0.0,5.6,31,0.00,,,0.00,WUHU21623XXSP,2013-03-28 16:29:00,
2013-03-28 09:34:00,66.7,34.4,30.05,SW,225,0.0,5.6,30,0.00,,,0.00,WUHU21623XXSP,2013-03-28 16:34:00,
2013-03-28 09:39:00,67.1,34.7,30.06,SW,225,2.9,7.6,30,0.00,,,0.00,WUHU21623XXSP,2013-03-28 16:39:00,
2013-03-28 09:44:00,67.6,35.1,30.05,SW,225,0.0,7.6,30,0.00,,,0.00,WUHU21623XXSP,2013-03-28 16:44:00,
2013-03-28 09:49:00,67.8,33.3,30.04,SW,225,0.0,8.1,28,0.00,,,0.00,WUHU21623XXSP,2013-03-28 16:49:00,
2013-03-28 09:54:00,67.8,33.3,30.05,SW,225,1.3,9.6,28,0.00,,,0.00,WUHU21623XXSP,2013-03-28 16:54:00,
2013-03-28 10:00:00,67.8,33.3,30.05,SW,225,3.6,9.6,28,0.00,,,0.00,WUHU21623XXSP,2013-03-28 17:00:00,
2013-03-28 10:05:00,68.0,33.4,30.05,SW,225,0.0,11.0,28,0.00,,,0.00,WUHU21623XXSP,2013-03-28 17:05:00,
2013-03-28 10:10:00,68.2,34.6,30.05,SW,225,5.1,11.0,29,0.00,,,0.00,WUHU21623XXSP,2013-03-28 17:10:00,
2013-03-28 10:15:00,68.4,34.7,30.05,SW,225,0.0,10.3,29,0.00,,,0.00,WUHU21623XXSP,2013-03-28 17:15:00,
2013-03-28 10:20:00,68.4,34.7,30.05,South,180,4.5,10.1,29,0.00,,,0.00,WUHU21623XXSP,2013-03-28 17:20:00,
2013-03-28 10:25:00,68.5,34.9,30.05,SSW,202,5.4,9.2,29,0.00,,,0.00,WUHU21623XXSP,2013-03-28 17:25:00,
2013-03-28 10:30:00,68.2,35.6,30.05,SW,225,0.0,9.2,30,0.00,,,0.00,WUHU21623XXSP,2013-03-28 17:30:00,
2013-03-28 10:35:00,68.4,35.7,30.06,SW,225,4.3,13.0,30,0.00,,,0.00,WUHU21623XXSP,2013-03-28 17:35:00,
2013-03-28 10:40:00,68.5,35.9,30.06,SW,225,6.9,16.3,30,0.00,,,0.00,WUHU21623XXSP,2013-03-28 17:40:00,
2013-03-28 10:45:00,68.0,35.4,30.06,SSW,202,5.8,16.3,30,0.00,,,0.00,WUHU21623XXSP,2013-03-28 17:45:00,
2013-03-28 10:50:00,68.2,35.6,30.06,SSW,202,11.4,16.1,30,0.00,,,0.00,WUHU21623XXSP,2013-03-28 17:50:00,
2013-03-28 10:55:00,68.4,35.7,30.06,SW,225,14.1,14.1,30,0.00,,,0.00,WUHU21623XXSP,2013-03-28 17:55:00,
2013-03-28 11:00:00,68.2,35.6,30.06,West,270,6.0,16.1,30,0.00,,,0.00,WUHU21623XXSP,2013-03-28 18:00:00,
2013-03-28 11:05:00,68.2,36.3,30.06,SSW,202,2.7,16.1,31,0.00,,,0.00,WUHU21623XXSP,2013-03-28 18:05:00,
2013-03-28 11:10:00,68.5,36.6,30.06,SW,225,0.0,14.5,31,0.00,,,0.00,WUHU21623XXSP,2013-03-28 18:10:00,
2013-03-28 11:15:00,68.7,36.8,30.06,WSW,247,4.0,14.5,31,0.00,,,0.00,WUHU21623XXSP,2013-03-28 18:15:00,
2013-03-28 11:20:00,69.3,37.3,30.06,SSW,202,0.0,15.4,31,0.00,,,0.00,WUHU21623XXSP,2013-03-28 18:20:00,
2013-03-28 11:25:00,69.6,37.6,30.06,SW,225,0.7,15.4,31,0.00,,,0.00,WUHU21623XXSP,2013-03-28 18:25:00,
2013-03-28 11:30:00,69.1,37.1,30.07,SW,225,11.0,13.6,31,0.00,,,0.00,WUHU21623XXSP,2013-03-28 18:30:00,
2013-03-28 11:35:00,69.8,37.8,30.06,SW,225,11.2,12.8,31,0.00,,,0.00,WUHU21623XXSP,2013-03-28 18:35:00,
2013-03-28 11:40:00,70.3,37.5,30.07,WSW,247,12.3,13.9,30,0.00,,,0.00,WUHU21623XXSP,2013-03-28 18:40:00,
2013-03-28 11:45:00,70.5,37.7,30.06,WSW,247,2.2,17.9,30,0.00,,,0.00,WUHU21623XXSP,2013-03-28 18:45:00,
2013-03-28 11:50:00,70.7,37.9,30.06,SW,225,6.0,17.9,30,0.00,,,0.00,WUHU21623XXSP,2013-03-28 18:50:00,
2013-03-28 11:55:00,70.5,37.7,30.06,SW,225,3.8,16.8,30,0.00,,,0.00,WUHU21623XXSP,2013-03-28 18:55:00,
2013-03-28 12:00:00,70.7,37.9,30.06,SW,225,11.0,12.8,30,0.00,,,0.00,WUHU21623XXSP,2013-03-28 19:00:00,
2013-03-28 12:05:00,71.2,37.3,30.06,SSW,202,6.3,14.8,29,0.00,,,0.00,WUHU21623XXSP,2013-03-28 19:05:00,
2013-03-28 12:10:00,71.2,37.3,30.06,SW,225,15.0,19.7,29,0.00,,,0.00,WUHU21623XXSP,2013-03-28 19:10:00,
2013-03-28 12:15:00,71.8,36.8,30.06,SW,225,8.7,22.4,28,0.00,,,0.00,WUHU21623XXSP,2013-03-28 19:15:00,
2013-03-28 12:20:00,71.4,36.4,30.06,SW,225,1.3,22.4,28,0.00,,,0.00,WUHU21623XXSP,2013-03-28 19:20:00,
2013-03-28 12:25:00,71.4,36.4,30.06,SW,225,13.6,20.8,28,0.00,,,0.00,WUHU21623XXSP,2013-03-28 19:25:00,
2013-03-28 12:30:00,71.8,36.8,30.06,SW,225,5.1,19.7,28,0.00,,,0.00,WUHU21623XXSP,2013-03-28 19:30:00,
2013-03-28 12:35:00,72.0,36.9,30.06,SW,225,11.9,20.6,28,0.00,,,0.00,WUHU21623XXSP,2013-03-28 19:35:00,
2013-03-28 12:40:00,72.3,37.2,30.06,SW,225,8.1,21.5,28,0.00,,,0.00,WUHU21623XXSP,2013-03-28 19:40:00,
2013-03-28 12:45:00,73.0,36.8,30.06,SSW,202,3.8,21.5,27,0.00,,,0.00,WUHU21623XXSP,2013-03-28 19:45:00,
2013-03-28 12:50:00,73.2,36.9,30.06,SW,225,8.7,18.1,27,0.00,,,0.00,WUHU21623XXSP,2013-03-28 19:50:00,
2013-03-28 12:55:00,73.2,35.9,30.06,SSW,202,9.2,18.1,26,0.00,,,0.00,WUHU21623XXSP,2013-03-28 19:55:00,
2013-03-28 13:00:00,73.0,35.8,30.06,South,180,3.6,17.9,26,0.00,,,0.00,WUHU21623XXSP,2013-03-28 20:00:00,
2013-03-28 13:05:00,73.6,36.2,30.06,SSW,202,10.1,19.2,26,0.00,,,0.00,WUHU21623XXSP,2013-03-28 20:05:00,
2013-03-28 13:10:00,73.9,36.5,30.06,SSW,202,17.4,19.2,26,0.00,,,0.00,WUHU21623XXSP,2013-03-28 20:10:00,
2013-03-28 13:15:00,74.1,35.7,30.05,SSW,202,4.9,17.4,25,0.00,,,0.00,WUHU21623XXSP,2013-03-28 20:15:00,
2013-03-28 13:21:00,73.6,35.2,30.05,SSW,202,11.4,20.6,25,0.00,,,0.00,WUHU21623XXSP,2013-03-28 20:21:00,
2013-03-28 13:26:00,73.8,35.4,30.05,SW,225,15.7,20.6,25,0.00,,,0.00,WUHU21623XXSP,2013-03-28 20:26:00,
2013-03-28 13:31:00,74.1,35.7,30.04,SW,225,6.3,17.9,25,0.00,,,0.00,WUHU21623XXSP,2013-03-28 20:31:00,
2013-03-28 13:36:00,74.3,34.8,30.04,WSW,247,7.8,17.9,24,0.00,,,0.00,WUHU21623XXSP,2013-03-28 20:36:00,
2013-03-28 13:41:00,73.9,34.5,30.04,SW,225,11.0,18.3,24,0.00,,,0.00,WUHU21623XXSP,2013-03-28 20:41:00,
2013-03-28 13:46:00,74.5,35.0,30.05,WSW,247,8.1,18.3,24,0.00,,,0.00,WUHU21623XXSP,2013-03-28 20:46:00,
2013-03-28 13:51:00,75.0,35.4,30.04,WSW,247,8.9,18.1,24,0.00,,,0.00,WUHU21623XXSP,2013-03-28 20:51:00,
2013-03-28 13:56:00,74.8,35.3,30.04,WSW,247,7.6,18.1,24,0.00,,,0.00,WUHU21623XXSP,2013-03-28 20:56:00,
2013-03-28 14:01:00,75.0,35.4,30.04,WSW,247,10.1,17.7,24,0.00,,,0.00,WUHU21623XXSP,2013-03-28 21:01:00,
2013-03-28 14:06:00,75.7,36.0,30.03,WSW,247,13.2,13.6,24,0.00,,,0.00,WUHU21623XXSP,2013-03-28 21:06:00,
2013-03-28 14:11:00,75.9,36.2,30.03,WSW,247,9.6,17.0,24,0.00,,,0.00,WUHU21623XXSP,2013-03-28 21:11:00,
2013-03-28 14:16:00,75.9,36.2,30.03,WSW,247,5.6,17.0,24,0.00,,,0.00,WUHU21623XXSP,2013-03-28 21:16:00,
2013-03-28 14:21:00,75.4,35.7,30.03,WSW,247,7.8,13.6,24,0.00,,,0.00,WUHU21623XXSP,2013-03-28 21:21:00,
2013-03-28 14:26:00,75.6,35.9,30.03,WSW,247,7.8,10.5,24,0.00,,,0.00,WUHU21623XXSP,2013-03-28 21:26:00,
2013-03-28 14:31:00,75.9,36.2,30.03,WSW,247,7.4,12.1,24,0.00,,,0.00,WUHU21623XXSP,2013-03-28 21:31:00,
2013-03-28 14:36:00,75.9,36.2,30.03,WSW,247,7.2,12.1,24,0.00,,,0.00,WUHU21623XXSP,2013-03-28 21:36:00,
2013-03-28 14:41:00,75.6,35.9,30.03,WSW,247,4.9,14.5,24,0.00,,,0.00,WUHU21623XXSP,2013-03-28 21:41:00,
2013-03-28 14:46:00,75.4,35.7,30.02,WSW,247,11.6,14.5,24,0.00,,,0.00,WUHU21623XXSP,2013-03-28 21:46:00,
2013-03-28 14:51:00,75.7,36.0,30.02,WSW,247,14.8,17.0,24,0.00,,,0.00,WUHU21623XXSP,2013-03-28 21:51:00,
2013-03-28 14:57:00,75.9,36.2,30.02,WSW,247,5.8,17.0,24,0.00,,,0.00,WUHU21623XXSP,2013-03-28 21:57:00,
2013-03-28 15:02:00,76.3,36.5,30.02,WSW,247,6.5,13.4,24,0.00,,,0.00,WUHU21623XXSP,2013-03-28 22:02:00,
2013-03-28 15:07:00,76.3,36.5,30.01,WSW,247,8.1,13.4,24,0.00,,,0.00,WUHU21623XXSP,2013-03-28 22:07:00,
2013-03-28 15:12:00,76.6,36.8,30.02,WSW,247,10.1,13.9,24,0.00,,,0.00,WUHU21623XXSP,2013-03-28 22:12:00,
2013-03-28 15:17:00,76.5,36.6,30.01,WSW,247,9.8,14.1,24,0.00,,,0.00,WUHU21623XXSP,2013-03-28 22:17:00,
2013-03-28 15:22:00,75.7,36.0,30.02,SW,225,13.6,14.8,24,0.00,,,0.00,WUHU21623XXSP,2013-03-28 22:22:00,
2013-03-28 15:27:00,74.8,36.3,30.02,WSW,247,8.1,16.8,25,0.00,,,0.00,WUHU21623XXSP,2013-03-28 22:27:00,
2013-03-28 15:32:00,74.5,36.0,30.02,SW,225,12.5,15.4,25,0.00,,,0.00,WUHU21623XXSP,2013-03-28 22:32:00,
2013-03-28 15:37:00,74.1,35.7,30.02,WSW,247,14.5,15.9,25,0.00,,,0.00,WUHU21623XXSP,2013-03-28 22:37:00,
2013-03-28 15:42:00,73.4,35.1,30.02,SW,225,2.7,15.9,25,0.00,,,0.00,WUHU21623XXSP,2013-03-28 22:42:00,
2013-03-28 15:47:00,73.0,35.8,30.02,SW,225,12.3,17.9,26,0.00,,,0.00,WUHU21623XXSP,2013-03-28 22:47:00,
2013-03-28 15:52:00,72.7,35.5,30.02,SW,225,8.9,17.9,26,0.00,,,0.00,WUHU21623XXSP,2013-03-28 22:52:00,
2013-03-28 15:57:00,73.2,35.9,30.02,WSW,247,5.6,12.8,26,0.00,,,0.00,WUHU21623XXSP,2013-03-28 22:57:00,
2013-03-28 16:02:00,73.8,36.4,30.01,SSW,202,10.5,14.8,26,0.00,,,0.00,WUHU21623XXSP,2013-03-28 23:02:00,
2013-03-28 16:07:00,73.6,36.2,30.01,WSW,247,0.0,15.2,26,0.00,,,0.00,WUHU21623XXSP,2013-03-28 23:07:00,
2013-03-28 16:12:00,74.3,35.8,30.01,WSW,247,6.0,15.2,25,0.00,,,0.00,WUHU21623XXSP,2013-03-28 23:12:00,
2013-03-28 16:17:00,75.0,36.4,30.02,WSW,247,9.4,15.4,25,0.00,,,0.00,WUHU21623XXSP,2013-03-28 23:17:00,
2013-03-28 16:22:00,75.0,36.4,30.01,WSW,247,5.1,15.4,25,0.00,,,0.00,WUHU21623XXSP,2013-03-28 23:22:00,
2013-03-28 16:27:00,74.1,35.7,30.01,WSW,247,11.9,14.5,25,0.00,,,0.00,WUHU21623XXSP,2013-03-28 23:27:00,
2013-03-28 16:32:00,74.3,35.8,30.01,WSW,247,7.2,15.4,25,0.00,,,0.00,WUHU21623XXSP,2013-03-28 23:32:00,
2013-03-28 16:37:00,74.3,35.8,30.02,WSW,247,8.5,16.1,25,0.00,,,0.00,WUHU21623XXSP,2013-03-28 23:37:00,
2013-03-28 16:42:00,74.3,35.8,30.02,WSW,247,9.2,16.1,25,0.00,,,0.00,WUHU21623XXSP,2013-03-28 23:42:00,
2013-03-28 16:47:00,74.1,36.7,30.01,WSW,247,5.8,19.0,26,0.00,,,0.00,WUHU21623XXSP,2013-03-28 23:47:00,
2013-03-28 16:52:00,74.1,36.7,30.01,WSW,247,6.9,19.0,26,0.00,,,0.00,WUHU21623XXSP,2013-03-28 23:52:00,
2013-03-28 16:57:00,73.6,36.2,30.02,WSW,247,16.6,16.6,26,0.00,,,0.00,WUHU21623XXSP,2013-03-28 23:57:00,
2013-03-28 17:02:00,73.0,35.8,30.02,WSW,247,8.7,16.8,26,0.00,,,0.00,WUHU21623XXSP,2013-03-29 00:02:00,
2013-03-28 17:07:00,72.9,35.6,30.01,WSW,247,13.2,16.8,26,0.00,,,0.00,WUHU21623XXSP,2013-03-29 00:07:00,
2013-03-28 17:12:00,73.0,36.8,30.01,WSW,247,8.1,18.3,27,0.00,,,0.00,WUHU21623XXSP,2013-03-29 00:12:00,
2013-03-28 17:18:00,73.0,35.8,30.01,WSW,247,11.9,18.3,26,0.00,,,0.00,WUHU21623XXSP,2013-03-29 00:18:00,
2013-03-28 17:23:00,72.3,35.1,30.01,WSW,247,17.2,17.2,26,0.00,,,0.00,WUHU21623XXSP,2013-03-29 00:23:00,
2013-03-28 17:28:00,72.1,35.0,30.02,WSW,247,18.6,18.6,26,0.00,,,0.00,WUHU21623XXSP,2013-03-29 00:28:00,
2013-03-28 17:33:00,72.0,35.9,30.01,WSW,247,12.1,18.6,27,0.00,,,0.00,WUHU21623XXSP,2013-03-29 00:33:00,
2013-03-28 17:38:00,71.8,34.7,30.02,WSW,247,9.8,14.1,26,0.00,,,0.00,WUHU21623XXSP,2013-03-29 00:38:00,
2013-03-28 17:43:00,71.8,34.7,30.02,WSW,247,10.7,14.3,26,0.00,,,0.00,WUHU21623XXSP,2013-03-29 00:43:00,
2013-03-28 17:48:00,71.2,34.2,30.02,WSW,247,8.1,15.9,26,0.00,,,0.00,WUHU21623XXSP,2013-03-29 00:48:00,
2013-03-28 17:53:00,70.9,35.0,30.02,SSW,202,8.3,15.9,27,0.00,,,0.00,WUHU21623XXSP,2013-03-29 00:53:00,
2013-03-28 17:58:00,70.5,34.6,30.02,WSW,247,5.1,15.9,27,0.00,,,0.00,WUHU21623XXSP,2013-03-29 00:58:00,
2013-03-28 18:03:00,70.3,34.5,30.02,SW,225,5.6,15.9,27,0.00,,,0.00,WUHU21623XXSP,2013-03-29 01:03:00,
2013-03-28 18:08:00,70.0,34.2,30.03,SW,225,7.4,15.0,27,0.00,,,0.00,WUHU21623XXSP,2013-03-29 01:08:00,
2013-03-28 18:13:00,69.6,34.9,30.03,SW,225,10.1,16.3,28,0.00,,,0.00,WUHU21623XXSP,2013-03-29 01:13:00,
2013-03-28 18:18:00,69.1,35.4,30.02,SW,225,7.6,16.3,29,0.00,,,0.00,WUHU21623XXSP,2013-03-29 01:18:00,
2013-03-28 18:23:00,68.7,35.1,30.03,SSW,202,10.7,15.0,29,0.00,,,0.00,WUHU21623XXSP,2013-03-29 01:23:00,
2013-03-28 18:28:00,68.5,34.9,30.03,SW,225,11.4,14.8,29,0.00,,,0.00,WUHU21623XXSP,2013-03-29 01:28:00,
2013-03-28 18:33:00,68.2,35.6,30.03,SSW,202,6.7,17.4,30,0.00,,,0.00,WUHU21623XXSP,2013-03-29 01:33:00,
2013-03-28 18:38:00,67.8,35.3,30.03,SSW,202,2.2,17.4,30,0.00,,,0.00,WUHU21623XXSP,2013-03-29 01:38:00,
2013-03-28 18:43:00,67.6,35.9,30.03,SSW,202,6.0,14.3,31,0.00,,,0.00,WUHU21623XXSP,2013-03-29 01:43:00,
2013-03-28 18:48:00,67.3,35.6,30.03,SSW,202,8.9,17.9,31,0.00,,,0.00,WUHU21623XXSP,2013-03-29 01:48:00,
2013-03-28 18:53:00,66.9,35.3,30.03,SW,225,2.2,17.9,31,0.00,,,0.00,WUHU21623XXSP,2013-03-29 01:53:00,
2013-03-28 18:58:00,66.7,35.9,30.03,SSW,202,6.7,13.2,32,0.00,,,0.00,WUHU21623XXSP,2013-03-29 01:58:00,
2013-03-28 19:03:00,66.4,35.6,30.03,SSW,202,7.8,15.2,32,0.00,,,0.00,WUHU21623XXSP,2013-03-29 02:03:00,
2013-03-28 19:08:00,66.2,35.4,30.03,SSW,202,11.9,15.2,32,0.00,,,0.00,WUHU21623XXSP,2013-03-29 02:08:00,
2013-03-28 19:13:00,65.8,35.1,30.03,SSW,202,8.5,19.9,32,0.00,,,0.00,WUHU21623XXSP,2013-03-29 02:13:00,
2013-03-28 19:18:00,65.5,35.5,30.03,SSW,202,18.3,19.9,33,0.00,,,0.00,WUHU21623XXSP,2013-03-29 02:18:00,
2013-03-28 19:23:00,65.3,35.3,30.03,SSW,202,3.1,18.3,33,0.00,,,0.00,WUHU21623XXSP,2013-03-29 02:23:00,
2013-03-28 19:28:00,65.1,35.2,30.03,SSW,202,11.9,18.1,33,0.00,,,0.00,WUHU21623XXSP,2013-03-29 02:28:00,
2013-03-28 19:33:00,64.9,35.0,30.03,SSW,202,7.2,13.9,33,0.00,,,0.00,WUHU21623XXSP,2013-03-29 02:33:00,
2013-03-28 19:38:00,64.9,35.0,30.03,SSW,202,2.2,17.0,33,0.00,,,0.00,WUHU21623XXSP,2013-03-29 02:38:00,
2013-03-28 19:43:00,64.8,34.8,30.03,SSW,202,4.5,17.0,33,0.00,,,0.00,WUHU21623XXSP,2013-03-29 02:43:00,
2013-03-28 19:48:00,64.8,34.8,30.03,SSW,202,11.4,15.2,33,0.00,,,0.00,WUHU21623XXSP,2013-03-29 02:48:00,
2013-03-28 19:53:00,64.6,34.7,30.02,SSW,202,12.3,15.2,33,0.00,,,0.00,WUHU21623XXSP,2013-03-29 02:53:00,
2013-03-28 19:58:00,64.6,35.4,30.03,SSW,202,6.7,15.0,34,0.00,,,0.00,WUHU21623XXSP,2013-03-29 02:58:00,
2013-03-28 20:03:00,64.4,35.2,30.03,SSW,202,8.1,15.0,34,0.00,,,0.00,WUHU21623XXSP,2013-03-29 03:03:00,
2013-03-28 20:08:00,64.2,35.8,30.03,SSW,202,13.4,15.2,35,0.00,,,0.00,WUHU21623XXSP,2013-03-29 03:08:00,
2013-03-28 20:13:00,64.0,35.6,30.03,SSW,202,8.5,15.9,35,0.00,,,0.00,WUHU21623XXSP,2013-03-29 03:13:00,
2013-03-28 20:18:00,64.0,35.6,30.04,South,180,13.2,16.3,35,0.00,,,0.00,WUHU21623XXSP,2013-03-29 03:18:00,
2013-03-28 20:23:00,63.9,35.5,30.03,SSW,202,10.5,16.3,35,0.00,,,0.00,WUHU21623XXSP,2013-03-29 03:23:00,
2013-03-28 20:28:00,63.7,34.6,30.04,South,180,8.3,13.2,34,0.00,,,0.00,WUHU21623XXSP,2013-03-29 03:28:00,
2013-03-28 20:33:00,63.5,34.4,30.04,South,180,4.7,11.4,34,0.00,,,0.00,WUHU21623XXSP,2013-03-29 03:33:00,
2013-03-28 20:38:00,63.3,34.3,30.05,South,180,0.0,11.4,34,0.00,,,0.00,WUHU21623XXSP,2013-03-29 03:38:00,
2013-03-28 20:44:00,63.7,34.6,30.05,South,180,0.0,9.2,34,0.00,,,0.00,WUHU21623XXSP,2013-03-29 03:44:00,
2013-03-28 20:48:00,63.5,34.4,30.05,South,180,0.0,0.0,34,0.00,,,0.00,WUHU21623XXSP,2013-03-29 03:48:00,
2013-03-28 20:54:00,63.5,34.4,30.06,South,180,0.0,0.0,34,0.00,,,0.00,WUHU21623XXSP,2013-03-29 03:54:00,
2013-03-28 20:59:00,63.1,34.1,30.05,South,180,0.0,0.0,34,0.00,,,0.00,WUHU21623XXSP,2013-03-29 03:59:00,
2013-03-28 21:00:00,63.1,34.1,30.05,South,180,0.0,0.0,34,0.00,,,0.00,WUHU21623XXSP,2013-03-29 04:00:00,
2013-03-28 21:02:00,63.1,34.1,30.06,South,180,0.0,0.0,34,0.00,,,0.00,WUHU21623XXSP,2013-03-29 04:02:00,
2013-03-28 21:07:00,63.1,34.1,30.06,South,180,0.0,0.0,34,0.00,,,0.00,WUHU21623XXSP,2013-03-29 04:07:00,
2013-03-28 21:12:00,63.0,33.9,30.06,South,180,0.0,0.0,34,0.00,,,0.00,WUHU21623XXSP,2013-03-29 04:12:00,
2013-03-28 21:17:00,62.8,33.8,30.06,South,180,0.0,0.0,34,0.00,,,0.00,WUHU21623XXSP,2013-03-29 04:17:00,
2013-03-28 21:22:00,62.4,33.5,30.06,South,180,0.0,0.0,34,0.00,,,0.00,WUHU21623XXSP,2013-03-29 04:22:00,
2013-03-28 21:27:00,62.2,33.3,30.06,South,180,0.0,0.0,34,0.00,,,0.00,WUHU21623XXSP,2013-03-29 04:27:00,
2013-03-28 21:32:00,62.2,33.3,30.06,South,180,0.0,0.0,34,0.00,,,0.00,WUHU21623XXSP,2013-03-29 04:32:00,
2013-03-28 21:37:00,61.7,32.8,30.06,South,180,0.0,0.0,34,0.00,,,0.00,WUHU21623XXSP,2013-03-29 04:37:00,
2013-03-28 21:42:00,61.7,32.8,30.07,South,180,0.0,0.0,34,0.00,,,0.00,WUHU21623XXSP,2013-03-29 04:42:00,
2013-03-28 21:47:00,61.5,32.6,30.07,South,180,0.0,2.0,34,0.00,,,0.00,WUHU21623XXSP,2013-03-29 04:47:00,
2013-03-28 21:52:00,61.5,32.6,30.07,South,180,4.3,7.8,34,0.00,,,0.00,WUHU21623XXSP,2013-03-29 04:52:00,
2013-03-28 21:57:00,61.5,32.6,30.07,South,180,0.0,7.8,34,0.00,,,0.00,WUHU21623XXSP,2013-03-29 04:57:00,
2013-03-28 22:02:00,61.5,32.6,30.07,South,180,0.0,5.4,34,0.00,,,0.00,WUHU21623XXSP,2013-03-29 05:02:00,
2013-03-28 22:07:00,61.5,32.6,30.06,South,180,0.0,5.4,34,0.00,,,0.00,WUHU21623XXSP,2013-03-29 05:07:00,
2013-03-28 22:12:00,61.7,32.8,30.06,South,180,0.0,3.8,34,0.00,,,0.00,WUHU21623XXSP,2013-03-29 05:12:00,
2013-03-28 22:17:00,61.5,32.6,30.06,South,180,0.0,0.0,34,0.00,,,0.00,WUHU21623XXSP,2013-03-29 05:17:00,
2013-03-28 22:22:00,61.3,32.5,30.06,South,180,0.0,0.0,34,0.00,,,0.00,WUHU21623XXSP,2013-03-29 05:22:00,
2013-03-28 22:28:00,61.3,32.5,30.06,South,180,0.0,0.0,34,0.00,,,0.00,WUHU21623XXSP,2013-03-29 05:28:00,
2013-03-28 22:33:00,61.0,32.2,30.06,South,180,0.0,0.0,34,0.00,,,0.00,WUHU21623XXSP,2013-03-29 05:33:00,
2013-03-28 22:38:00,61.0,32.2,30.07,South,180,0.0,0.0,34,0.00,,,0.00,WUHU21623XXSP,2013-03-29 05:38:00,
2013-03-28 22:43:00,60.6,31.8,30.07,South,180,0.0,0.0,34,0.00,,,0.00,WUHU21623XXSP,2013-03-29 05:43:00,
2013-03-28 22:48:00,60.4,31.7,30.07,South,180,0.0,0.0,34,0.00,,,0.00,WUHU21623XXSP,2013-03-29 05:48:00,
2013-03-28 22:53:00,60.3,31.5,30.07,South,180,0.0,0.0,34,0.00,,,0.00,WUHU21623XXSP,2013-03-29 05:53:00,
2013-03-28 22:58:00,60.1,32.1,30.07,South,180,0.0,0.0,35,0.00,,,0.00,WUHU21623XXSP,2013-03-29 05:58:00,
2013-03-28 23:03:00,60.1,32.1,30.07,South,180,0.0,0.0,35,0.00,,,0.00,WUHU21623XXSP,2013-03-29 06:03:00,
2013-03-28 23:08:00,59.7,31.8,30.07,South,180,0.0,0.0,35,0.00,,,0.00,WUHU21623XXSP,2013-03-29 06:08:00,
2013-03-28 23:13:00,59.2,31.3,30.07,South,180,0.0,0.0,35,0.00,,,0.00,WUHU21623XXSP,2013-03-29 06:13:00,
2013-03-28 23:18:00,58.8,31.0,30.07,South,180,0.0,0.0,35,0.00,,,0.00,WUHU21623XXSP,2013-03-29 06:18:00,
2013-03-28 23:23:00,58.8,31.7,30.07,South,180,0.0,0.0,36,0.00,,,0.00,WUHU21623XXSP,2013-03-29 06:23:00,
2013-03-28 23:28:00,58.8,31.7,30.07,South,180,0.0,0.0,36,0.00,,,0.00,WUHU21623XXSP,2013-03-29 06:28:00,
2013-03-28 23:33:00,58.8,31.7,30.08,South,180,0.0,0.0,36,0.00,,,0.00,WUHU21623XXSP,2013-03-29 06:33:00,
2013-03-28 23:38:00,58.8,31.7,30.07,South,180,0.0,0.0,36,0.00,,,0.00,WUHU21623XXSP,2013-03-29 06:38:00,
2013-03-28 23:43:00,58.8,31.7,30.07,South,180,0.0,0.0,36,0.00,,,0.00,WUHU21623XXSP,2013-03-29 06:43:00,
2013-03-28 23:48:00,58.6,31.6,30.07,South,180,0.0,0.0,36,0.00,,,0.00,WUHU21623XXSP,2013-03-29 06:48:00,
2013-03-28 23:53:00,58.3,31.2,30.07,South,180,0.0,0.0,36,0.00,,,0.00,WUHU21623XXSP,2013-03-29 06:53:00,
2013-03-28 23:58:00,58.5,32.1,30.07,South,180,0.0,0.0,37,0.00,,,0.00,WUHU21623XXSP,2013-03-29 06:58:00,